DEIMOS (60526 NORAD) Tracking and Keplerian Element Data

This shows tracking and keplerian element data for the satellite.

Feedback or suggestion? Click here.




ElementValue
Catalog60526
NameDEIMOS
Epoch Orbit865
Epoch Day286.78035008
Epoch Year2024
RAAN1.5738
Inclination97.4381
Eccentricity0.0007565
Argument of Perigee312.5322
Mean Anonmoly47.5274
Mean Motion15.211679
Decay Rate0.00022015
L11 60526U 24149BL 24286.78035008 .00022015 00000+0 98823-3 0 9994
L22 60526 97.4381 1.5738 0007565 312.5322 47.5274 15.21167900 8658



Live tracking and technical data element details for DEIMOS (NORAD 60526). DEIMOS can be tracked NOW for your location showing map with azimuth and elevation plus other details from your city location.







IsCatalogInMostPopularTable: catalog: 60526, numindb: 4
Update: records affected: 1



GetName: 60526 DEIMOS

Hit Count: updated at: Wed, 04 Dec 2024 19:13:55 GMT